Location: Arborea
(39.7744°N, 8.5819°E)
Time: 23:22:02
(UTC+00:00)

Cosmos 2322 Rocket - Pass Details

Date: 24 October 2021
Orbit: 832 x 851 km, 71.0° (Epoch: 27 November)

Event Time Altitude Azimuth Distance (km) Brightness Sun altitude
Rises 18:01:42 0° 213° (SSW) 3,362 5.8 -17.6°
Reaches altitude 10° 18:04:10 10° 217° (SW) 2,432 5.1 -18.0°
Maximum altitude 18:09:39 58° 296° (WNW) 971 2.8 -19.1°
Drops below altitude 10° 18:15:11 10° 15° (NNE) 2,451 4.5 -20.2°
Sets 18:17:41 0° 20° (NNE) 3,391 5.2 -20.6°
